Home > Weather > Salina > Past weeks

Flag for USA Past Weather in Salina, Kansas, USA — Yesterday and Last 2 Weeks

Now
78 °F

Passing clouds.


Feels Like: 80 °F
Forecast: 75 / 98 °F
Wind: 15 mph from South

Location: Salina Municipal Airport

Current Time: Jun 25, 2016 at 7:23:13 AM

Latest Report: Jun 25, 2016 at 6:53 AM


Visibility: 10 mi

Pressure: 29.85 "Hg

Humidity: 69%

Dew Point: 67 °F

Location of SalinaLocation

Past Weather in Salina — Graph

°F

Salina Temperature Yesterday

Maximum temperature yesterday: 91 °F (at 2:53 PM)
Minimum temperature yesterday: 72 °F (at 12:53 AM)
Average temperature yesterday: 82 °F

High & Low Weather Summary for the Past Weeks

 TemperatureHumidityPressure
High106 °F (Jun 15, 2:53 PM)93% (Jun 19, 6:53 AM)30.14 "Hg (Jun 19, 6:53 AM)
Low69 °F (Jun 15, 4:53 AM)18% (Jun 15, 1:53 PM)29.64 "Hg (Jun 14, 6:53 PM)
Average85 °F58%29.90 "Hg
* Reported Jun 10 5:53 AM — Jun 25 5:53 AM, Salina, Weather by CustomWeather, © 2016

Note: Actual official high and low records may vary slightly from our data, if they occured in-between our weather recording intervals... More about our weather records

Advertising

Salina Weather History for the Previous 24 Hours

Scroll right to see more
 ConditionsComfort  
Time TempWeatherWind HumidityBarometerVisibility
5:53 AM
Sat, Jun 25
79 °FPassing clouds.20 mph65%29.84 "Hg10 mi
4:53 AM80 °FPassing clouds.15 mph64%29.84 "Hg10 mi
3:53 AM80 °FPassing clouds.14 mph67%29.84 "Hg10 mi
2:53 AM82 °FPassing clouds.15 mph63%29.85 "Hg10 mi
1:53 AM82 °FPassing clouds.14 mph65%29.85 "Hg10 mi
12:53 AM83 °FClear.14 mph63%29.87 "Hg10 mi
11:53 PM
Fri, Jun 24
84 °FClear.15 mph61%29.86 "Hg10 mi
10:53 PM85 °FClear.16 mph61%29.85 "Hg10 mi
9:53 PM86 °FSunny.12 mph61%29.83 "Hg10 mi
8:53 PM88 °FSunny.14 mph59%29.83 "Hg10 mi
7:53 PM90 °FSunny.16 mph56%29.82 "Hg10 mi
6:53 PM90 °FSunny.20 mph57%29.83 "Hg10 mi
5:53 PM91 °FPassing clouds.17 mph54%29.85 "Hg10 mi
4:53 PM90 °FSunny.21 mph56%29.87 "Hg10 mi
3:53 PM90 °FSunny.22 mph52%29.89 "Hg10 mi
2:53 PM91 °FSunny.20 mph50%29.90 "Hg10 mi
1:53 PM86 °FLight rain. Broken clouds.16 mph55%29.91 "Hg10 mi
12:53 PM89 °FSunny.9 mph52%29.92 "Hg10 mi
11:53 AM83 °FScattered clouds.6 mph65%29.95 "Hg10 mi
10:53 AM79 °FScattered clouds.10 mph79%29.96 "Hg10 mi
9:53 AM78 °FPassing clouds.13 mph79%29.98 "Hg10 mi
8:53 AM77 °FPartly sunny.15 mph79%29.96 "Hg10 mi
7:53 AM75 °FSunny.10 mph82%29.93 "Hg10 mi
Weather by CustomWeather, © 2016

See weather overviewHow to use our weather pages